Dutzow, MO

11:09 AM CDT on September 26, 2016 (GMT -0500)
Washington

Weather History for KFYG - March, 2014

Change the Weather History Date:

Friday, March 7, 2014

  Actual Average (KSTL) Record (KSTL)
Temperature  
Mean Temperature 42 °F 43 °F  
Max Temperature 60 °F 52 °F 85 °F (1974)
Min Temperature 24 °F 34 °F 2 °F (1943)
Degree Days  
Heating Degree Days 23 22  
Month to date heating degree days 163  
Since 1 July heating degree days 3761  
Cooling Degree Days 0 0  
Month to date cooling degree days 0  
Year to date cooling degree days 0  
Moisture  
Dew Point 27 °F    
Average Humidity 66    
Maximum Humidity 100    
Minimum Humidity 29    
Precipitation  
Precipitation 0.00 in 0.09 in 1.80 in (1978)
Month to date precipitation 0.62  
Year to date precipitation 5.26  
Snow  
Snow 0.00 in 0.20 in 6.80 in (1978)
Month to date snowfall 0.8  
Since 1 July snowfall 15.8  
Snow Depth -    
Sea Level Pressure  
Sea Level Pressure 29.97 in    
Wind  
Wind Speed 1 mph (SSE)    
Max Wind Speed 8 mph    
Max Gust Speed -    
Visibility 8 miles    
Events      
T = Trace of Precipitation, MM = Missing Value Source: NWS Daily Summary

Daily Weather History Graph

Daily Weather History Graph

Search for Another Location

Airport or City:

Trip Planner

Search our weather history database for the weather conditions in past years. The results will help you decide how hot, cold, wet, or windy it might be!

Date:

Astronomy

Mar. 07, 2014 Rise Set
Actual Time 6:27 AM CST 6:03 PM CST
Civil Twilight 6:00 AM CST 6:29 PM CST
Nautical Twilight 5:30 AM CST 7:00 PM CST
Astronomical Twilight 4:59 AM CST 7:31 PM CST
Moon 10:24 AM CST (3/7) 12:04 AM CST (3/7)
Length of Visible Light 12h 28m
Length of Day
11h 35m
Waxing Crescent, 42% of the Moon is Illuminated
Mar 7
Waxing Crescent
Mar 8
First Quarter
Mar 16
Full
Mar 23
Last Quarter
Mar 30
New

Hourly Weather History & Observations

Time (CST) Temp. Windchill Dew Point Humidity Pressure Visibility Wind Dir Wind Speed Gust Speed Precip Events Conditions
12:15 AM 26.6 °F - 24.8 °F 93% 30.06 in 8.0 mi Calm Calm - N/A   Overcast
12:35 AM 26.6 °F - 24.8 °F 93% 30.07 in 5.0 mi Calm Calm - N/A   Mostly Cloudy
12:55 AM 30.2 °F - 24.8 °F 80% 30.06 in 10.0 mi Calm Calm - N/A   Mostly Cloudy
1:15 AM 26.6 °F - 26.6 °F 100% 30.06 in 6.0 mi Calm Calm - N/A   Scattered Clouds
1:35 AM 26.6 °F - 26.6 °F 100% 30.05 in 4.0 mi Calm Calm - N/A   Scattered Clouds
1:55 AM 24.8 °F - 24.8 °F 100% 30.04 in 5.0 mi Calm Calm - N/A   Mostly Cloudy
2:35 AM 24.8 °F - 24.8 °F 100% 30.03 in 5.0 mi Calm Calm - N/A   Partly Cloudy
3:35 AM 26.6 °F - 24.8 °F 93% 30.02 in 5.0 mi Calm Calm - N/A   Partly Cloudy
3:55 AM 24.8 °F - 24.8 °F 100% 30.02 in 5.0 mi Calm Calm - N/A   Partly Cloudy
4:15 AM 24.8 °F - 24.8 °F 100% 30.02 in 4.0 mi Calm Calm - N/A   Clear
4:35 AM 24.8 °F 20.5 °F 24.8 °F 100% 30.02 in 4.0 mi SSE 3.5 mph - N/A   Clear
4:55 AM 24.8 °F - 24.8 °F 100% 30.02 in 3.0 mi Calm Calm - N/A   Clear
5:15 AM 24.8 °F - 24.8 °F 100% 30.02 in 3.0 mi Calm Calm - N/A   Clear
5:35 AM 24.8 °F - 24.8 °F 100% 30.01 in 3.0 mi Calm Calm - N/A   Clear
5:55 AM 24.8 °F - 24.8 °F 100% 30.01 in 4.0 mi Calm Calm - N/A   Clear
6:15 AM 24.8 °F 20.5 °F 24.8 °F 100% 30.01 in 3.0 mi SSE 3.5 mph - N/A   Clear
6:35 AM 24.8 °F - 24.8 °F 100% 30.01 in 4.0 mi Calm Calm - N/A   Clear
6:55 AM 24.8 °F 20.5 °F 24.8 °F 100% 30.01 in 2.5 mi SE 3.5 mph - N/A   Clear
7:15 AM 24.8 °F - 24.8 °F 100% 30.01 in 3.0 mi Calm Calm - N/A   Clear
7:35 AM 26.6 °F - 26.6 °F 100% 30.02 in 3.0 mi Calm Calm - N/A   Clear
7:55 AM 32.0 °F 26.4 °F 28.4 °F 87% 30.02 in 5.0 mi SE 5.8 mph - N/A   Clear
8:15 AM 33.8 °F 30.8 °F 24.8 °F 70% 30.01 in 5.0 mi SSE 3.5 mph - N/A   Haze
8:35 AM 33.8 °F - 24.8 °F 70% 30.01 in 5.0 mi Calm Calm - N/A   Haze
8:55 AM 35.6 °F - 26.6 °F 70% 30.01 in 8.0 mi Calm Calm - N/A   Clear
9:15 AM 37.4 °F - 26.6 °F 65% 30.01 in 6.0 mi Calm Calm - N/A   Haze
9:35 AM 39.2 °F - 26.6 °F 61% 30.01 in 8.0 mi Calm Calm - N/A   Clear
9:55 AM 42.8 °F 41.1 °F 26.6 °F 53% 30.00 in 8.0 mi SSE 3.5 mph - N/A   Clear
10:15 AM 44.6 °F 42.2 °F 26.6 °F 49% 30.00 in 10.0 mi SSE 4.6 mph - N/A   Clear
10:35 AM 46.4 °F 45.2 °F 26.6 °F 46% 29.99 in 10.0 mi SSE 3.5 mph - N/A   Clear
10:55 AM 48.2 °F - 26.6 °F 43% 29.99 in 10.0 mi SE 3.5 mph - N/A   Clear
11:15 AM 51.8 °F - 26.6 °F 38% 29.99 in 10.0 mi Calm Calm - N/A   Clear
11:35 AM 53.6 °F - 26.6 °F 35% 29.98 in 10.0 mi Calm Calm - N/A   Clear
11:55 AM 53.6 °F - 26.6 °F 35% 29.97 in 10.0 mi East 3.5 mph - N/A   Clear
12:15 PM 55.4 °F - 26.6 °F 33% 29.96 in 10.0 mi Calm Calm - N/A   Clear
12:35 PM 55.4 °F - 28.4 °F 36% 29.94 in 10.0 mi SE 3.5 mph - N/A   Clear
12:55 PM 57.2 °F - 28.4 °F 33% 29.93 in 10.0 mi South 8.1 mph - N/A   Clear
1:15 PM 59.0 °F - 26.6 °F 29% 29.92 in 10.0 mi SE 3.5 mph - N/A   Clear
1:55 PM 59.0 °F - 28.4 °F 31% 29.91 in 10.0 mi South 6.9 mph - N/A   Clear
2:15 PM 59.0 °F - 28.4 °F 31% 29.90 in 10.0 mi SW 5.8 mph - N/A   Clear
2:35 PM 60.8 °F - 30.2 °F 31% 29.90 in 10.0 mi South 8.1 mph - N/A   Clear
2:55 PM 59.0 °F - 26.6 °F 29% 29.89 in 2.5 mi SE 3.5 mph - N/A   Haze
5:15 PM 59.0 °F - 32.0 °F 36% 29.86 in 6.0 mi South 4.6 mph - N/A   Haze
5:35 PM 57.2 °F - 32.0 °F 38% 29.87 in 9.0 mi Calm Calm - N/A   Clear
5:55 PM 57.2 °F - 26.6 °F 31% 29.88 in 10.0 mi Calm Calm - N/A   Clear
6:15 PM 59.0 °F - 26.6 °F 29% 29.89 in 10.0 mi Calm Calm - N/A   Clear
6:55 PM 53.6 °F - 28.4 °F 38% 29.89 in 10.0 mi SE 3.5 mph - N/A   Clear
7:35 PM 48.2 °F - 30.2 °F 50% 29.89 in 10.0 mi Calm Calm - N/A   Clear
7:55 PM 48.2 °F - 30.2 °F 50% 29.90 in 10.0 mi Calm Calm - N/A   Clear
8:15 PM 46.4 °F - 32.0 °F 57% 29.91 in 10.0 mi Calm Calm - N/A   Clear
8:35 PM 48.2 °F - 30.2 °F 50% 29.92 in 10.0 mi Calm Calm - N/A   Clear
8:55 PM 48.2 °F - 28.4 °F 46% 29.92 in 10.0 mi SE 3.5 mph - N/A   Clear
9:35 PM 46.4 °F - 32.0 °F 57% 29.93 in 10.0 mi Calm Calm - N/A   Clear
9:55 PM 41.0 °F - 32.0 °F 70% 29.94 in 10.0 mi Calm Calm - N/A   Clear
10:15 PM 41.0 °F - 32.0 °F 70% 29.94 in 10.0 mi Calm Calm - N/A   Clear
10:35 PM 44.6 °F - 30.2 °F 57% 29.95 in 10.0 mi Calm Calm - N/A   Partly Cloudy
10:55 PM 42.8 °F - 32.0 °F 66% 29.95 in 10.0 mi Calm Calm - N/A   Scattered Clouds
11:15 PM 41.0 °F 39.0 °F 32.0 °F 70% 29.96 in 10.0 mi NW 3.5 mph - N/A   Scattered Clouds
11:35 PM 42.8 °F - 30.2 °F 61% 29.96 in 10.0 mi Calm Calm - N/A   Partly Cloudy
11:55 PM 41.0 °F - 32.0 °F 70% 29.97 in 10.0 mi Calm Calm - N/A   Clear